Tracking 25710 objects as of 5-Jul-2022
HD Live streaming from Space Station
objects crossing your sky now

FENGYUN 1C DEB

Track FENGYUN 1C DEB now!
10-day predictions


NORAD ID: 30356
Int'l Code: 1999-025ABT
Perigee: 831.3 km
Apogee: 912.2 km
Inclination: 98.7 °
Period: 102.2 minutes
Semi major axis: 7242 km
RCS: 0.038 m2 (small)
Launch date: May 10, 1999
Source: People's Republic of China (PRC)
Launch site: Taiyaun Space Center, China (TSC)

Note: This is SATELLITE DEBRIS
aabbcc
Your satellite tracking list
Your tracking list is empty




NASA's NSSDC Master Catalog

Two Line Element Set (TLE):
1 30356U 99025ABT 22185.94799637  .00000457  00000-0  28726-3 0  9998
2 30356  98.6948 208.8323 0055848 256.1557 179.6912 14.08475086793041
Source of the keplerian elements: AFSPC